Content
SEND FEEDBACK

Daily
Averages
Monthly
Summary
United States of America

ROCKWELL CITY, IOWA


Home > North America > United States > Iowa
Elevation: 1211 feet     Latitude: 42 24N     Longitude: 094 37W

WEATHER
 
SELECT A DAY
Number of Records: 336,691;   Date Range: 4/23/95 - 9/16/14
 
SHARE

PRINT THIS DATA

[ ← Previous Day ]
WEATHER ALMANAC - FEBRUARY 13, 2013
[ Next Day → ]
[ °C ]   °F
Weather ElementAverageHighLow
Temperature36 °F50 °F (2:15 pm)23 °F (3:55 am)
Dewpoint27.6 °F32 °F (11:55 am)21.2 °F (3:35 am)
Humidity74 %93 % (1:35 am)43 % (2:35 pm)
Barometer29.76 in29.86 in (12:35 am)29.67 in (5:55 pm)
Wind Speed11.3 mph20.7 mph (3:35 pm)
Wind Gust24.2 mph (1:35 pm)
Weather ElementAverage
Visibility10 mi
Wind DirectionWSW (261.7 °)

Weather ElementTotal
Precipitation---
Heating Degree Days28.5 (Base 65)
Averaged from 70 records on February 13, 2013
WEATHER CONDITIONS BREAKOUT
WIND DIRECTION BREAKOUT
WEATHER BY HOUR - FEBRUARY 13, 2013
[ °C ]   °F
Local TimeTemperatureDewpointHumidityBarometerVisibilityWind DirectionWind SpeedGust SpeedPrecipitationEventsConditions
12:35 AM26.6 °F23.0 °F86 %29.86 in10.0 miWest (280°)5.8 mphClear
12:55 AM26.6 °F23.0 °F86 %29.86 in10.0 miWest (270°)5.8 mphClear
1:15 AM26.6 °F23.0 °F86 %29.86 in10.0 miWest (280°)6.9 mphClear
1:35 AM24.8 °F23.0 °F93 %29.86 in10.0 miWNW (300°)8.1 mphClear
1:55 AM24.8 °F23.0 °F93 %29.86 in10.0 miWest (280°)10.4 mphClear
2:15 AM24.8 °F23.0 °F93 %29.85 in10.0 miWest (280°)9.2 mphClear
2:35 AM24.8 °F23.0 °F93 %29.85 in10.0 miWest (280°)9.2 mphClear
2:55 AM24.8 °F23.0 °F93 %29.84 in10.0 miWest (280°)9.2 mphClear
3:15 AM24.8 °F23.0 °F93 %29.84 in10.0 miWest (280°)9.2 mphClear
3:35 AM24.8 °F21.2 °F86 %29.83 in10.0 miWest (280°)9.2 mphClear
3:55 AM23.0 °F21.2 °F93 %29.83 in10.0 miWest (280°)9.2 mphClear
4:15 AM23.0 °F21.2 °F93 %29.83 in10.0 miWest (280°)8.1 mphClear
4:35 AM24.8 °F21.2 °F86 %29.82 in10.0 miWest (270°)8.1 mphClear
4:55 AM24.8 °F23.0 °F93 %29.82 in10.0 miWest (270°)8.1 mphClear
5:15 AM24.8 °F23.0 °F93 %29.81 in10.0 miWest (270°)8.1 mphClear
5:35 AM24.8 °F23.0 °F93 %29.80 in10.0 miWest (280°)5.8 mphClear
6:15 AM24.8 °F21.2 °F86 %29.80 in10.0 miWest (280°)9.2 mphClear
6:35 AM23.0 °F21.2 °F93 %29.81 in10.0 miWest (280°)11.5 mphClear
6:55 AM23.0 °F21.2 °F93 %29.81 in10.0 miWest (270°)9.2 mphClear
7:15 AM24.8 °F23.0 °F93 %29.81 in10.0 miWest (270°)8.1 mphClear
7:35 AM26.6 °F23.0 °F86 %29.81 in10.0 miWest (280°)9.2 mphClear
7:55 AM28.4 °F24.8 °F86 %29.81 in10.0 miWest (270°)11.5 mphPartly Cloudy
8:15 AM28.4 °F26.6 °F93 %29.81 in10.0 miWest (280°)11.5 mphMostly Cloudy
8:35 AM28.4 °F26.6 °F93 %29.81 in10.0 miWest (270°)11.5 mphPartly Cloudy
8:55 AM32.0 °F28.4 °F87 %29.81 in10.0 miWest (270°)12.7 mphClear
9:15 AM33.8 °F28.4 °F81 %29.81 in10.0 miWest (270°)13.8 mphClear
9:35 AM33.8 °F28.4 °F81 %29.81 in10.0 miWest (260°)9.2 mphClear
9:55 AM33.8 °F28.4 °F81 %29.81 in10.0 miWest (260°)11.5 mphClear
10:15 AM35.6 °F30.2 °F81 %29.81 in10.0 miWest (270°)11.5 mphClear
10:35 AM37.4 °F30.2 °F75 %29.80 in10.0 miWest (270°)11.5 mphClear
10:55 AM39.2 °F30.2 °F70 %29.80 in10.0 miWest (270°)10.4 mphClear
11:15 AM41.0 °F30.2 °F65 %29.79 in10.0 miWSW (250°)15.0 mphClear
11:35 AM42.8 °F30.2 °F61 %29.79 in10.0 miWSW (250°)12.7 mphClear
11:55 AM42.8 °F32.0 °F66 %29.77 in10.0 miSW (230°)13.8 mph20.7 mphClear
12:15 PM44.6 °F32.0 °F61 %29.76 in10.0 miWSW (240°)15.0 mphClear
12:35 PM46.4 °F32.0 °F57 %29.75 in10.0 miSW (220°)15.0 mph21.9 mphClear
12:55 PM46.4 °F32.0 °F57 %29.74 in10.0 miSW (230°)15.0 mph21.9 mphClear
1:15 PM48.2 °F30.2 °F50 %29.74 in10.0 miWSW (250°)17.3 mphClear
1:35 PM48.2 °F30.2 °F50 %29.73 in10.0 miWSW (240°)15.0 mph24.2 mphClear
1:55 PM48.2 °F32.0 °F54 %29.72 in10.0 miWSW (250°)15.0 mph21.9 mphClear
2:15 PM50.0 °F30.2 °F47 %29.71 in10.0 miWSW (240°)19.6 mphPartly Cloudy
2:35 PM50.0 °F28.4 °F43 %29.70 in10.0 miWest (260°)15.0 mph21.9 mphClear
2:55 PM50.0 °F28.4 °F43 %29.70 in10.0 miWSW (240°)18.4 mph24.2 mphClear
3:15 PM50.0 °F28.4 °F43 %29.69 in10.0 miWest (260°)18.4 mph24.2 mphClear
3:35 PM50.0 °F30.2 °F47 %29.69 in10.0 miWSW (240°)20.7 mphPartly Cloudy
3:55 PM48.2 °F28.4 °F46 %29.69 in10.0 miWSW (240°)17.3 mph24.2 mphScattered Clouds
4:15 PM48.2 °F30.2 °F50 %29.69 in10.0 miWSW (240°)12.7 mph19.6 mphOvercast
4:35 PM48.2 °F30.2 °F50 %29.68 in10.0 miWSW (240°)13.8 mphOvercast
4:55 PM46.4 °F32.0 °F57 %29.68 in10.0 miSW (230°)10.4 mph17.3 mphMostly Cloudy
5:15 PM46.4 °F32.0 °F57 %29.68 in10.0 miSW (230°)11.5 mphScattered Clouds
5:35 PM44.6 °F32.0 °F61 %29.68 in10.0 miSW (230°)10.4 mphMostly Cloudy
5:55 PM44.6 °F32.0 °F61 %29.67 in10.0 miSW (220°)11.5 mphOvercast
6:15 PM42.8 °F32.0 °F66 %29.67 in10.0 miSSW (200°)10.4 mphOvercast
6:35 PM42.8 °F32.0 °F66 %29.68 in10.0 miSW (230°)15.0 mphOvercast
6:55 PM46.4 °F30.2 °F53 %29.67 in10.0 miWSW (250°)16.1 mph21.9 mphOvercast
7:15 PM44.6 °F30.2 °F57 %29.67 in10.0 miWSW (240°)13.8 mphOvercast
7:35 PM44.6 °F32.0 °F61 %29.67 in10.0 miWest (260°)12.7 mphOvercast
7:55 PM42.8 °F30.2 °F61 %29.67 in10.0 miWest (260°)11.5 mphOvercast
8:15 PM41.0 °F30.2 °F65 %29.68 in10.0 miWest (270°)11.5 mphScattered Clouds
8:35 PM37.4 °F30.2 °F75 %29.68 in10.0 miWest (280°)10.4 mphClear
8:55 PM37.4 °F30.2 °F75 %29.68 in10.0 miWest (280°)8.1 mphPartly Cloudy
9:15 PM37.4 °F30.2 °F75 %29.68 in10.0 miWest (270°)11.5 mphClear
9:35 PM35.6 °F30.2 °F81 %29.68 in10.0 miWest (270°)10.4 mphClear
9:55 PM35.6 °F30.2 °F81 %29.69 in10.0 miWest (270°)9.2 mphClear
10:15 PM33.8 °F28.4 °F81 %29.69 in10.0 miWest (270°)6.9 mphClear
10:35 PM33.8 °F28.4 °F81 %29.70 in10.0 miWest (270°)8.1 mphClear
10:55 PM32.0 °F28.4 °F87 %29.70 in10.0 miWest (280°)6.9 mphClear
11:15 PM33.8 °F28.4 °F81 %29.71 in10.0 miWest (280°)5.8 mphClear
11:35 PM32.0 °F28.4 °F87 %29.72 in10.0 miWNW (300°)5.8 mphClear
11:55 PM32.0 °F28.4 °F87 %29.73 in10.0 miWest (280°)8.1 mphClear
Hourly data recorded from KCIN, located miles away from Rockwell City, Iowa







STORIES FROM OUR PARTNERS